Regional Weather Roundup
Issued by NWS Jackson, KY

Home | Current Version | Previous Version | Text Only | Print | Product List | Glossary Off
Versions: 1 2 3 4 5 6 7 8 9 10 11 12 13 14 15 16 17 18 19 20 21 22 23 24 25 26 27 28 29 30 31 32 33 34 35 36 37 38 39 40 41 42 43 44 45 46 47 48 49 50

000
ASUS43 KJKL 261210
RWRJKL

EAST KENTUCKY HOURLY WEATHER ROUNDUP
NATIONAL WEATHER SERVICE JACKSON KY
800 AM EDT TUE SEP 26 2017

NOTE: "FAIR" INDICATES FEW OR NO CLOUDS BELOW 12,000 FEET WITH
NO SIGNIFICANT WEATHER AND/OR OBSTRUCTIONS TO VISIBILITY.

* THESE REPORTS ARE NOT UNDER NWS QUALITY CONTROL AND MAY NOT
  REPORT WEATHER SUCH AS PRECIPITATION AND FOG.

KYZ079-080-083-085-087-088-110-112-115-119-120-261300
...EASTERN KENTUCKY...

CITY           SKY/WX    TMP DP  RH WIND       PRES   REMARKS
JACKSON        CLEAR     64  62  93 CALM      30.05R
6HR MIN TEMP:  64; 6HR MAX TEMP:  70;

LONDON         CLEAR     59  56  89 CALM      30.05R
6HR MIN TEMP:  58; 6HR MAX TEMP:  64;

SOMERSET*      CLEAR     57  57 100 CALM      30.05R
MONTICELLO*    PTCLDY    56  56 100 NE8       30.06R
6HR MIN TEMP:  55; 6HR MAX TEMP:  59;

WILLIAMSBURG*  CLOUDY    57  57 100 CALM      30.05R VSB<1/4
MIDDLESBORO*   FOG       60  60 100 W3        30.07S VSB 1/2
6HR MIN TEMP:  60; 6HR MAX TEMP:  61;

HARLAN APT*    CLOUDY    59  59 100 CALM      30.08R VSB<1/4
PIKE CO APT*     N/A     64  64 100 S3        30.07R
BIG SANDY APT* SUNNY     62  62 100 CALM      30.06R FOG
6HR MIN TEMP:  62; 6HR MAX TEMP:  65;

MOREHEAD APT*  SUNNY     61  61 100 CALM      30.06S
$$

KYZ035-036-041-042-044-050-067-078-099-261300
...CENTRAL KENTUCKY...

CITY           SKY/WX    TMP DP  RH WIND       PRES   REMARKS
MT STERLING*   CLEAR     61  59  94 CALM      30.06R
FLEMING/MASON* MOCLDY    59  59 100 CALM      30.06R FOG
DANVILLE*      CLEAR     59  59 100 CALM      30.05S
LEXINGTON      CLEAR     62  59  90 SE3       30.04R
6HR MIN TEMP:  62; 6HR MAX TEMP:  68;

FRANKFORT      MOCLDY    62  58  86 CALM      30.02S
6HR MIN TEMP:  60; 6HR MAX TEMP:  65;

LOUISVILLE     CLEAR     69  66  90 CALM      30.02R FOG
6HR MIN TEMP:  69; 6HR MAX TEMP:  74;

LEBANON*         N/A     64  61  88 E5        30.03R
GLASGOW*         N/A    N/A N/A N/A CALM      30.02R FOG
BOWLING GREEN  FOG       64  64 100 CALM      30.02R VSB 1/2
6HR MIN TEMP:  61; 6HR MAX TEMP:  68;

$$

KYZ091>093-OHZ055-061-077-WVZ005-015-034-035-042-261300
...SOUTHERN OHIO/WEST VIRGINIA...

CITY           SKY/WX    TMP DP  RH WIND       PRES   REMARKS
COVINGTON      CLEAR     64  64 100 CALM      30.03R
COLUMBUS       PTCLDY    65  63  93 CALM      30.04R
DAYTON         CLEAR     65  61  87 SE6       30.05R
WILMINGTON     CLEAR     62  61  96 CALM      30.05R FOG
HUNTINGTON     FOG       62  61  96 CALM      30.04R VSB<1/4
CHARLESTON     FOG       61  59  93 SE5       30.05R VSB 1
PINEVILLE*     CLEAR     57  55  95 MISG      30.13S FOG
BECKLEY        CLEAR     59  57  93 CALM      30.11R FOG
BLUEFIELD      PTCLDY    57  56  96 W3        30.12R FOG
LOGAN CO APT*    N/A     63  63 100 CALM      30.07R FOG
$$

VAZ002-007-008-TNZ017-027-036-066-071-261300
...SOUTHWEST VIRGINIA/EAST TENNESSEE...

CITY           SKY/WX    TMP DP  RH WIND       PRES   REMARKS
WISE*          CLEAR     64  64 100 CALM      30.12S
JONESVILLE*      N/A     55  55 100 CALM      30.09R
ABINGDON*      CLEAR     63  62  98 CALM      30.09R
BRISTOL        PTCLDY    58  58 100 CALM      30.07R
MORRISTOWN*    SUNNY     61  57  88 CALM      30.04R
SEVIERVILLE*   SUNNY     57  55  94 CALM      30.04R
KNOXVILLE      PTCLDY    61  59  93 NE3       30.03R
LAFOLLETTE*    FOG       57  57 100 CALM      30.08R VSB 0
OAK RIDGE      CLEAR     62  60  93 CALM      30.05R
CROSSVILLE     FOG       58  58 100 CALM      30.08R VSB 3/4
NASHVILLE      PTCLDY    66  65  96 CALM      30.02R FOG
$$

...KEY TO REMARKS...
VSB - VISIBILITY IN MILES
WCI - WIND CHILL INDEX
HX  - HEAT INDEX

$$



USA.gov is the U.S. government's official web portal to all federal, state and local government web resources and services.